Simultaneous Nadir Overpasses (SNOs) Predictions

Prediction of SNOs between AQUA and NOAA-19 Satellite Orbit:

Table of predicted SNOs for the next 14.0 days since TLE Epoch: 8/24/2018
Index Date (AQUA) Time (AQUA) Lat,Lon (AQUA) SZA (AQUA ) Date (NOAA-19) Time (NOAA-19) Lat,Lon (NOAA-19) SZA (NOAA-19 ) Distance(km) Time Diff (sec)
1 08/25/2018 04:45:16 -80.74,-108.87 108.04 08/25/2018 04:44:25 -80.73,-108.96 108.01 1.88 51
2 08/25/2018 05:34:43 80.73, 58.81 71.97 08/25/2018 05:35:28 80.74, 58.62 71.98 3.43 45
3 08/27/2018 10:18:58 80.72, -12.09 72.69 08/27/2018 10:18:01 80.73, -12.22 72.73 2.66 57
4 08/27/2018 11:08:25 -80.75, 155.18 107.25 08/27/2018 11:08:58 -80.74, 155.27 107.28 2.09 33
5 08/29/2018 15:52:40 -80.74, 84.26 106.51 08/29/2018 15:51:32 -80.72, 84.22 106.49 1.76 68
6 08/29/2018 16:42:07 80.74,-108.06 73.50 08/29/2018 16:42:34 80.73,-108.21 73.50 2.70 27
7 08/31/2018 21:26:23 80.75,-179.33 74.30 08/31/2018 21:25:15 80.62, 178.01 74.51 49.98 68
8 08/31/2018 22:15:48 -80.73, -11.39 105.74 08/31/2018 22:16:04 -80.74, -11.24 105.75 3.22 16
9 09/03/2018 03:49:31 80.74, 85.00 75.08 09/03/2018 03:49:39 80.73, 85.18 75.05 3.26 8




NCC Satellite Simultaneous Nadir Overpasses (SNOs) Prediction Service
